Flag for Germany Past Weather in Neumarkt in der Oberpfalz, Bavaria, Germany — Yesterday and Last 2 Weeks

Now
45 °F

Fog.


Feels Like: 45 °F
Forecast: 51 / 71 °F
Wind: No wind

Location: Hohenfels

Current Time: Sep 28, 2016 at 9:08:15 AM

Latest Report: Sep 28, 2016 at 7:59 AM


Visibility: 4 mi

Pressure: 30.39 "Hg

Humidity: 100%

Dew Point: 45 °F

Location of Neumarkt in der OberpfalzLocation

Past Weather in Neumarkt in der Oberpfalz — Graph

°F

Neumarkt in der Oberpfalz Temperature Yesterday

Maximum temperature yesterday: 70 °F (at 1:58 PM)
Minimum temperature yesterday: 46 °F (at 6:58 AM)
Average temperature yesterday: 57 °F

High & Low Weather Summary for the Past Weeks

 TemperatureHumidityPressure
High86 °F (Sep 13, 3:58 PM)100% (Sep 15, 3:58 AM)30.40 "Hg (Sep 15, 3:58 AM)
Low39 °F (Sep 22, 5:58 AM)33% (Sep 13, 3:58 PM)29.84 "Hg (Sep 15, 3:58 PM)
Average57 °F82%30.08 "Hg
* Reported Sep 13 7:58 AM — Sep 28 7:59 AM, Neumarkt in der Oberpfalz, Weather by CustomWeather, © 2016

Note: Actual official high and low records may vary slightly from our data, if they occured in-between our weather recording intervals... More about our weather records

Advertising

Neumarkt in der Oberpfalz Weather History for the Previous 24 Hours

Scroll right to see more
 ConditionsComfort  
Time TempWeatherWind HumidityBarometerVisibility
7:59 AM
Wed, Sep 28
45 °FFog.No wind100%30.39 "Hg4 mi
7:03 AM43 °FFog.No wind100%30.38 "Hg1 mi
6:58 AM43 °FFog.No wind100%30.39 "Hg1 mi
5:58 AM45 °FClear.2 mph100%30.37 "HgN/A
4:58 AM45 °FClear.No wind93%30.37 "HgN/A
3:58 AM46 °FClear.No wind93%30.37 "HgN/A
2:58 AM46 °FClear.No wind93%30.38 "HgN/A
1:58 AM46 °FClear.No wind100%30.38 "HgN/A
12:58 AM48 °FClear.No wind100%30.38 "HgN/A
11:58 PM
Tue, Sep 27
50 °FClear.2 mph94%30.38 "HgN/A
10:58 PM50 °FClear.No wind100%30.38 "HgN/A
9:58 PM54 °FClear.2 mph94%30.37 "HgN/A
8:58 PM54 °FClear.2 mph94%30.38 "HgN/A
7:58 PM57 °FClear.5 mph88%30.37 "HgN/A
6:58 PM61 °FClear.5 mph77%30.35 "HgN/A
5:58 PM66 °FSunny.3 mph68%30.32 "HgN/A
4:58 PM70 °FPassing clouds.2 mph53%30.30 "HgN/A
3:58 PM70 °FSunny.2 mph50%30.29 "HgN/A
2:58 PM68 °FPartly sunny.3 mph53%30.29 "HgN/A
1:58 PM70 °FSunny.3 mph53%30.29 "HgN/A
12:58 PM66 °FSunny.5 mph60%30.30 "HgN/A
11:58 AM64 °FSunny.No wind68%30.30 "HgN/A
10:58 AM61 °FSunny.3 mph72%30.29 "HgN/A
9:58 AM59 °FSunny.1 mph77%30.28 "HgN/A
Weather by CustomWeather, © 2016

See weather overviewHow to use our weather pages